Weather History for Port Angeles, WA

Change the Weather History Date:

Thursday, October 17, 2013

  Actual Average Record
Temperature  
Mean Temperature 48 °F -  
Max Temperature 60 °F 56 °F 66 °F (2002)
Min Temperature 37 °F 41 °F 32 °F (2010)
Degree Days  
Heating Degree Days 16    
Moisture  
Dew Point 43 °F    
Average Humidity 85    
Maximum Humidity 97    
Minimum Humidity 53    
Precipitation  
Precipitation 0.00 in - - ()
Sea Level Pressure  
Sea Level Pressure 30.26 in    
Wind  
Wind Speed 2 mph (ESE)    
Max Wind Speed 7 mph    
Max Gust Speed -    
Visibility 10 miles    
Events      
Averages and records for this station are not official NWS values.
T = Trace of Precipitation, MM = Missing Value Source: NWS Daily Summary

Daily Weather History Graph

Daily Weather History Graph

Search for Another Location

Airport:

Trip Planner

Search our weather history database for the weather conditions in past years. The results will help you decide how hot, cold, wet, or windy it might be!

Date:

Astronomy

Oct. 17, 2013 Rise Set
Actual Time 7:36 AM PDT 6:20 PM PDT
Civil Twilight 7:05 AM PDT 6:52 PM PDT
Nautical Twilight 6:29 AM PDT 7:28 PM PDT
Astronomical Twilight 5:53 AM PDT 8:04 PM PDT
Moon 5:40 PM PDT (10/17) 6:10 AM PDT (10/17)
Length of Visible Light 11h 46m
Length of Day
10h 43m
Waxing Gibbous, 98% of the Moon is Illuminated
Oct 17
Waxing Gibbous
Oct 18
Full
Oct 26
Last Quarter
Nov 3
New
Nov 9
First Quarter

Hourly Weather History & Observations

Time (PDT) Temp. Windchill Dew Point Humidity Pressure Visibility Wind Dir Wind Speed Gust Speed Precip Events Conditions
12:53 AM 42.1 °F - 39.9 °F 92% 30.22 in 10.0 mi Calm Calm - N/A   Clear
1:53 AM 41.0 °F 39.0 °F 39.9 °F 96% 30.23 in 10.0 mi SSW 3.5 mph - N/A   Clear
2:53 AM 41.0 °F - 39.0 °F 93% 30.23 in 10.0 mi Calm Calm - N/A   Clear
3:53 AM 42.1 °F - 39.9 °F 92% 30.23 in 10.0 mi Calm Calm - N/A   Clear
4:53 AM 37.0 °F 34.5 °F 36.0 °F 96% 30.24 in 10.0 mi South 3.5 mph - N/A   Clear
5:53 AM 39.0 °F - 36.0 °F 89% 30.25 in 10.0 mi Calm Calm - N/A   Clear
6:53 AM 37.9 °F 35.5 °F 37.0 °F 97% 30.26 in 10.0 mi SSE 3.5 mph - N/A   Clear
7:53 AM 41.0 °F - 39.9 °F 96% 30.27 in 10.0 mi Calm Calm - N/A   Clear
8:53 AM 46.0 °F - 44.1 °F 93% 30.28 in 10.0 mi Calm Calm - N/A   Clear
9:53 AM 52.0 °F - 48.0 °F 86% 30.28 in 10.0 mi ESE 4.6 mph - N/A   Clear
10:53 AM 52.0 °F - 48.0 °F 86% 30.29 in 10.0 mi NE 5.8 mph - N/A   Clear
11:14 AM 52.0 °F - 48.0 °F 86% 30.28 in 10.0 mi East 5.8 mph - N/A   Partly Cloudy
11:53 AM 51.1 °F - 46.9 °F 86% 30.29 in 9.0 mi East 6.9 mph - N/A   Mostly Cloudy
12:10 PM 50.0 °F - 46.9 °F 89% 30.29 in 9.0 mi East 6.9 mph - N/A   Overcast
12:53 PM 52.0 °F - 48.0 °F 86% 30.29 in 10.0 mi Variable 4.6 mph - N/A   Overcast
1:06 PM 52.0 °F - 48.0 °F 86% 30.28 in 10.0 mi East 5.8 mph - N/A   Mostly Cloudy
1:18 PM 53.1 °F - 48.0 °F 83% 30.28 in 10.0 mi ESE 4.6 mph - N/A   Scattered Clouds
1:53 PM 55.9 °F - 48.0 °F 75% 30.27 in 10.0 mi ESE 4.6 mph - N/A   Clear
2:53 PM 60.1 °F - 43.0 °F 53% 30.26 in 10.0 mi East 5.8 mph - N/A   Clear
3:53 PM 60.1 °F - 43.0 °F 53% 30.25 in 10.0 mi East 4.6 mph - N/A   Clear
4:53 PM 57.9 °F - 44.1 °F 60% 30.24 in 10.0 mi ESE 6.9 mph - N/A   Clear
5:53 PM 55.0 °F - 44.1 °F 67% 30.24 in 10.0 mi ESE 4.6 mph - N/A   Clear
6:53 PM 46.9 °F - 43.0 °F 86% 30.24 in 10.0 mi South 3.5 mph - N/A   Clear
7:53 PM 45.0 °F - 42.1 °F 90% 30.25 in 10.0 mi Calm Calm - N/A   Clear
8:53 PM 45.0 °F - 42.1 °F 90% 30.24 in 10.0 mi Calm Calm - N/A   Clear
9:53 PM 41.0 °F - 39.0 °F 93% 30.25 in 10.0 mi Calm Calm - N/A   Clear
10:53 PM 42.1 °F - 39.0 °F 89% 30.26 in 10.0 mi Calm Calm - N/A   Clear
11:53 PM 39.9 °F - 37.9 °F 93% 30.26 in 10.0 mi Calm Calm - N/A   Clear